owner,sensor,date,latitude,longitude,vertical_datum,wind_speed,wind_to_direction,wind_speed_of_gust,qcFlag 
LUMCON,ioos:station:LUMCON:103:1,2005-05-01T00:00:00Z,30.1889,-90.1683,1.0,5.1,340.0,7.7,'11111222,11111222,11111222' 
LUMCON,ioos:station:LUMCON:103:1,2005-05-01T01:00:00Z,30.1889,-90.1683,1.0,5.1,360.0,6.2,'11111222,11144222,11111222' 
LUMCON,ioos:station:LUMCON:103:1,2005-05-01T02:00:00Z,30.1889,-90.1683,1.0,7.2,350.0,9.3,'11111222,11111222,11111222' 
LUMCON,ioos:station:LUMCON:103:1,2005-05-01T03:00:00Z,30.1889,-90.1683,1.0,6.7,0.0,8.8,'11111222,11111222,11111222' 
LUMCON,ioos:station:LUMCON:103:1,2005-05-01T04:00:00Z,30.1889,-90.1683,1.0,5.7,360.0,7.7,'11111222,11144222,11111222' 
LUMCON,ioos:station:LUMCON:103:1,2005-05-01T05:00:00Z,30.1889,-90.1683,1.0,6.7,360.0,9.3,'11111222,11144222,11111222' 
LUMCON,ioos:station:LUMCON:103:1,2005-05-01T06:00:00Z,30.1889,-90.1683,1.0,6.7,0.0,8.8,'11111222,11111222,11111222' 
LUMCON,ioos:station:LUMCON:103:1,2005-05-01T07:00:00Z,30.1889,-90.1683,1.0,8.2,20.0,10.3,'11111222,11111222,11111222' 
LUMCON,ioos:station:LUMCON:103:1,2005-05-01T08:00:00Z,30.1889,-90.1683,1.0,8.8,20.0,12.4,'11111222,11111222,11111222' 
LUMCON,ioos:station:LUMCON:103:1,2005-05-01T09:00:00Z,30.1889,-90.1683,1.0,5.1,10.0,6.7,'11111222,11111222,11111222' 
LUMCON,ioos:station:LUMCON:103:1,2005-05-01T10:00:00Z,30.1889,-90.1683,1.0,4.1,350.0,5.1,'11111222,11111222,11111222' 
LUMCON,ioos:station:LUMCON:103:1,2005-05-01T11:00:00Z,30.1889,-90.1683,1.0,3.1,330.0,4.1,'11111222,11111222,11111222' 
LUMCON,ioos:station:LUMCON:103:1,2005-05-01T12:00:00Z,30.1889,-90.1683,1.0,4.1,10.0,5.1,'11111222,11111222,11111222' 
LUMCON,ioos:station:LUMCON:103:1,2005-05-01T13:00:00Z,30.1889,-90.1683,1.0,4.6,10.0,6.7,'11111222,11111222,11111222' 
LUMCON,ioos:station:LUMCON:103:1,2005-05-01T14:00:00Z,30.1889,-90.1683,1.0,9.3,30.0,11.3,'11111222,11111222,11111222' 
LUMCON,ioos:station:LUMCON:103:1,2005-05-01T15:00:00Z,30.1889,-90.1683,1.0,9.3,30.0,11.8,'11111222,11111222,11111222' 
LUMCON,ioos:station:LUMCON:103:1,2005-05-01T16:00:00Z,30.1889,-90.1683,1.0,7.7,30.0,10.8,'11111222,11111222,11111222' 
LUMCON,ioos:station:LUMCON:103:1,2005-05-01T17:00:00Z,30.1889,-90.1683,1.0,7.7,10.0,10.3,'11111222,11111222,11111222' 
LUMCON,ioos:station:LUMCON:103:1,2005-05-01T18:00:00Z,30.1889,-90.1683,1.0,7.7,20.0,9.8,'11111222,11111222,11111222' 
LUMCON,ioos:station:LUMCON:103:1,2005-05-01T19:00:00Z,30.1889,-90.1683,1.0,7.2,20.0,9.3,'11111222,11111222,11111222' 
LUMCON,ioos:station:LUMCON:103:1,2005-05-01T20:00:00Z,30.1889,-90.1683,1.0,5.7,350.0,8.2,'11111222,11111222,11111222' 
LUMCON,ioos:station:LUMCON:103:1,2005-05-01T21:00:00Z,30.1889,-90.1683,1.0,6.2,350.0,7.7,'11111222,11111222,11111222' 
LUMCON,ioos:station:LUMCON:103:1,2005-05-01T22:00:00Z,30.1889,-90.1683,1.0,6.7,360.0,8.8,'11111222,11144222,11111222' 
LUMCON,ioos:station:LUMCON:103:1,2005-05-01T23:00:00Z,30.1889,-90.1683,1.0,5.1,10.0,7.7,'11111222,11111222,11111222' 
LUMCON,ioos:station:LUMCON:103:1,2005-05-02T00:00:00Z,30.1889,-90.1683,1.0,5.7,10.0,6.7,'11111222,11111222,11111222' 
LUMCON,ioos:station:LUMCON:103:1,2005-05-02T01:00:00Z,30.1889,-90.1683,1.0,4.6,10.0,5.1,'11111222,11111222,11111222' 
LUMCON,ioos:station:LUMCON:103:1,2005-05-02T02:00:00Z,30.1889,-90.1683,1.0,3.6,10.0,4.1,'11111222,11111222,11111222' 
LUMCON,ioos:station:LUMCON:103:1,2005-05-02T03:00:00Z,30.1889,-90.1683,1.0,3.6,20.0,4.6,'11111222,11111222,11111222' 
LUMCON,ioos:station:LUMCON:103:1,2005-05-02T04:00:00Z,30.1889,-90.1683,1.0,4.6,20.0,5.1,'11111222,11111222,11111222' 
LUMCON,ioos:station:LUMCON:103:1,2005-05-02T05:00:00Z,30.1889,-90.1683,1.0,4.6,10.0,5.1,'11111222,11111222,11111222' 
LUMCON,ioos:station:LUMCON:103:1,2005-05-02T06:00:00Z,30.1889,-90.1683,1.0,3.6,10.0,4.6,'11111222,11111222,11111222' 
LUMCON,ioos:station:LUMCON:103:1,2005-05-02T07:00:00Z,30.1889,-90.1683,1.0,4.6,10.0,5.7,'11111222,11111222,11111222' 
LUMCON,ioos:station:LUMCON:103:1,2005-05-02T08:00:00Z,30.1889,-90.1683,1.0,4.6,20.0,5.1,'11111222,11111222,11111222' 
LUMCON,ioos:station:LUMCON:103:1,2005-05-02T09:00:00Z,30.1889,-90.1683,1.0,3.1,350.0,4.1,'11111222,11111222,11111222' 
LUMCON,ioos:station:LUMCON:103:1,2005-05-02T10:00:00Z,30.1889,-90.1683,1.0,3.6,0.0,4.6,'11111222,11111222,11111222' 
LUMCON,ioos:station:LUMCON:103:1,2005-05-02T11:00:00Z,30.1889,-90.1683,1.0,4.6,10.0,5.7,'11111222,11111222,11111222' 
LUMCON,ioos:station:LUMCON:103:1,2005-05-02T12:00:00Z,30.1889,-90.1683,1.0,4.6,20.0,6.2,'11111222,11111222,11111222' 
LUMCON,ioos:station:LUMCON:103:1,2005-05-02T13:00:00Z,30.1889,-90.1683,1.0,5.7,20.0,6.7,'11111222,11111222,11111222' 
LUMCON,ioos:station:LUMCON:103:1,2005-05-02T14:00:00Z,30.1889,-90.1683,1.0,6.7,30.0,7.7,'11111222,11111222,11111222' 
LUMCON,ioos:station:LUMCON:103:1,2005-05-02T15:00:00Z,30.1889,-90.1683,1.0,4.1,30.0,4.6,'11111222,11111222,11111222' 
LUMCON,ioos:station:LUMCON:103:1,2005-05-02T16:00:00Z,30.1889,-90.1683,1.0,4.1,90.0,5.7,'11111222,11111222,11111222' 
LUMCON,ioos:station:LUMCON:103:1,2005-05-02T17:00:00Z,30.1889,-90.1683,1.0,2.6,130.0,3.6,'11111222,11111222,11111222' 
LUMCON,ioos:station:LUMCON:103:1,2005-05-02T18:00:00Z,30.1889,-90.1683,1.0,2.1,160.0,2.6,'11111222,11111222,11111222' 
LUMCON,ioos:station:LUMCON:103:1,2005-05-02T19:00:00Z,30.1889,-90.1683,1.0,2.6,140.0,3.1,'11111222,11111222,11111222' 
LUMCON,ioos:station:LUMCON:103:1,2005-05-02T20:00:00Z,30.1889,-90.1683,1.0,3.1,130.0,4.1,'11111222,11111222,11111222' 
LUMCON,ioos:station:LUMCON:103:1,2005-05-02T21:00:00Z,30.1889,-90.1683,1.0,3.6,210.0,4.1,'11111222,11111222,11111222' 
LUMCON,ioos:station:LUMCON:103:1,2005-05-02T22:00:00Z,30.1889,-90.1683,1.0,2.6,190.0,3.1,'11111222,11111222,11111222' 
LUMCON,ioos:station:LUMCON:103:1,2005-05-02T23:00:00Z,30.1889,-90.1683,1.0,1.0,20.0,2.1,'11111222,11111222,11111222' 
LUMCON,ioos:station:LUMCON:103:1,2005-05-03T00:00:00Z,30.1889,-90.1683,1.0,4.6,10.0,5.1,'11111222,11111222,11111222' 
LUMCON,ioos:station:LUMCON:103:1,2005-05-03T01:00:00Z,30.1889,-90.1683,1.0,5.1,10.0,7.2,'11111222,11111222,11111222' 
LUMCON,ioos:station:LUMCON:103:1,2005-05-03T02:00:00Z,30.1889,-90.1683,1.0,4.6,10.0,5.7,'11111222,11111222,11111222' 
LUMCON,ioos:station:LUMCON:103:1,2005-05-03T03:00:00Z,30.1889,-90.1683,1.0,4.6,360.0,5.7,'11111222,11144222,11111222' 
LUMCON,ioos:station:LUMCON:103:1,2005-05-03T04:00:00Z,30.1889,-90.1683,1.0,5.7,360.0,7.2,'11111222,11144222,11111222' 
LUMCON,ioos:station:LUMCON:103:1,2005-05-03T05:00:00Z,30.1889,-90.1683,1.0,6.7,0.0,8.8,'11111222,11111222,11111222' 
LUMCON,ioos:station:LUMCON:103:1,2005-05-03T06:00:00Z,30.1889,-90.1683,1.0,7.7,10.0,9.3,'11111222,11111222,11111222' 
LUMCON,ioos:station:LUMCON:103:1,2005-05-03T07:00:00Z,30.1889,-90.1683,1.0,6.2,10.0,7.7,'11111222,11111222,11111222' 
LUMCON,ioos:station:LUMCON:103:1,2005-05-03T08:00:00Z,30.1889,-90.1683,1.0,6.7,70.0,9.3,'11111222,11111222,11111222' 
LUMCON,ioos:station:LUMCON:103:1,2005-05-03T09:00:00Z,30.1889,-90.1683,1.0,7.7,70.0,9.3,'11111222,11111222,11111222' 
LUMCON,ioos:station:LUMCON:103:1,2005-05-03T10:00:00Z,30.1889,-90.1683,1.0,6.2,10.0,8.2,'11111222,11111222,11111222' 
LUMCON,ioos:station:LUMCON:103:1,2005-05-03T11:00:00Z,30.1889,-90.1683,1.0,5.7,360.0,7.2,'11111222,11144222,11111222' 
LUMCON,ioos:station:LUMCON:103:1,2005-05-03T12:00:00Z,30.1889,-90.1683,1.0,6.7,10.0,7.7,'11111222,11111222,11111222' 
LUMCON,ioos:station:LUMCON:103:1,2005-05-03T13:00:00Z,30.1889,-90.1683,1.0,8.2,20.0,9.8,'11111222,11111222,11111222' 
LUMCON,ioos:station:LUMCON:103:1,2005-05-03T14:00:00Z,30.1889,-90.1683,1.0,7.2,20.0,9.3,'11111222,11111222,11111222' 
LUMCON,ioos:station:LUMCON:103:1,2005-05-03T15:00:00Z,30.1889,-90.1683,1.0,6.2,40.0,7.7,'11111222,11111222,11111222' 
LUMCON,ioos:station:LUMCON:103:1,2005-05-03T16:00:00Z,30.1889,-90.1683,1.0,4.1,60.0,5.7,'11111222,11111222,11111222' 
LUMCON,ioos:station:LUMCON:103:1,2005-05-03T17:00:00Z,30.1889,-90.1683,1.0,3.6,80.0,4.6,'11111222,11111222,11111222' 
LUMCON,ioos:station:LUMCON:103:1,2005-05-03T18:00:00Z,30.1889,-90.1683,1.0,4.1,50.0,5.7,'11111222,11111222,11111222' 
LUMCON,ioos:station:LUMCON:103:1,2005-05-03T19:00:00Z,30.1889,-90.1683,1.0,3.6,50.0,5.1,'11111222,11111222,11111222' 
LUMCON,ioos:station:LUMCON:103:1,2005-05-03T20:00:00Z,30.1889,-90.1683,1.0,3.1,20.0,5.1,'11111222,11111222,11111222' 
LUMCON,ioos:station:LUMCON:103:1,2005-05-03T21:00:00Z,30.1889,-90.1683,1.0,3.6,0.0,5.7,'11111222,11111222,11111222' 
LUMCON,ioos:station:LUMCON:103:1,2005-05-04T13:00:00Z,30.1889,-90.1683,1.0,5.7,10.0,6.7,'11111222,11111222,11111222' 
LUMCON,ioos:station:LUMCON:103:1,2005-05-04T14:00:00Z,30.1889,-90.1683,1.0,8.2,20.0,10.3,'11111222,11111222,11111222' 
LUMCON,ioos:station:LUMCON:103:1,2005-05-04T15:00:00Z,30.1889,-90.1683,1.0,5.7,40.0,6.7,'11111222,11111222,11111222' 
LUMCON,ioos:station:LUMCON:103:1,2005-05-04T16:00:00Z,30.1889,-90.1683,1.0,6.2,60.0,7.2,'11111222,11111222,11111222' 
LUMCON,ioos:station:LUMCON:103:1,2005-05-04T17:00:00Z,30.1889,-90.1683,1.0,7.7,40.0,9.8,'11111222,11111222,11111222' 
LUMCON,ioos:station:LUMCON:103:1,2005-05-04T18:00:00Z,30.1889,-90.1683,1.0,5.7,30.0,6.7,'11111222,11111222,11111222' 
LUMCON,ioos:station:LUMCON:103:1,2005-05-04T19:00:00Z,30.1889,-90.1683,1.0,5.7,40.0,7.2,'11111222,11111222,11111222' 
LUMCON,ioos:station:LUMCON:103:1,2005-05-04T20:00:00Z,30.1889,-90.1683,1.0,4.6,20.0,6.2,'11111222,11111222,11111222' 
LUMCON,ioos:station:LUMCON:103:1,2005-05-04T21:00:00Z,30.1889,-90.1683,1.0,6.2,0.0,7.2,'11111222,11111222,11111222' 
LUMCON,ioos:station:LUMCON:103:1,2005-05-04T22:00:00Z,30.1889,-90.1683,1.0,5.1,10.0,6.7,'11111222,11111222,11111222' 
LUMCON,ioos:station:LUMCON:103:1,2005-05-04T23:00:00Z,30.1889,-90.1683,1.0,5.1,360.0,6.2,'11111222,11144222,11111222' 
LUMCON,ioos:station:LUMCON:103:1,2005-05-05T00:00:00Z,30.1889,-90.1683,1.0,4.1,10.0,5.1,'11111222,11111222,11111222' 
LUMCON,ioos:station:LUMCON:103:1,2005-05-05T01:00:00Z,30.1889,-90.1683,1.0,2.6,10.0,3.1,'11111222,11111222,11111222' 
LUMCON,ioos:station:LUMCON:103:1,2005-05-05T02:00:00Z,30.1889,-90.1683,1.0,4.6,10.0,6.2,'11111222,11111222,11111222' 
LUMCON,ioos:station:LUMCON:103:1,2005-05-05T03:00:00Z,30.1889,-90.1683,1.0,4.6,10.0,5.1,'11111222,11111222,11111222' 
LUMCON,ioos:station:LUMCON:103:1,2005-05-05T04:00:00Z,30.1889,-90.1683,1.0,3.1,340.0,3.6,'11111222,11111222,11111222' 
LUMCON,ioos:station:LUMCON:103:1,2005-05-05T05:00:00Z,30.1889,-90.1683,1.0,5.7,30.0,7.2,'11111222,11111222,11111222' 
LUMCON,ioos:station:LUMCON:103:1,2005-05-05T06:00:00Z,30.1889,-90.1683,1.0,3.6,10.0,4.1,'11111222,11111222,11111222' 
LUMCON,ioos:station:LUMCON:103:1,2005-05-05T07:00:00Z,30.1889,-90.1683,1.0,4.6,20.0,5.7,'11111222,11111222,11111222' 
LUMCON,ioos:station:LUMCON:103:1,2005-05-05T08:00:00Z,30.1889,-90.1683,1.0,4.6,10.0,6.2,'11111222,11111222,11111222' 
LUMCON,ioos:station:LUMCON:103:1,2005-05-05T09:00:00Z,30.1889,-90.1683,1.0,4.1,0.0,5.7,'11111222,11111222,11111222' 
LUMCON,ioos:station:LUMCON:103:1,2005-05-05T10:00:00Z,30.1889,-90.1683,1.0,4.6,350.0,5.7,'11111222,11111222,11111222' 
LUMCON,ioos:station:LUMCON:103:1,2005-05-05T11:00:00Z,30.1889,-90.1683,1.0,4.6,0.0,5.7,'11111222,11111222,11111222' 
LUMCON,ioos:station:LUMCON:103:1,2005-05-05T12:00:00Z,30.1889,-90.1683,1.0,4.6,350.0,5.1,'11111222,11111222,11111222' 
LUMCON,ioos:station:LUMCON:103:1,2005-05-05T13:00:00Z,30.1889,-90.1683,1.0,5.7,0.0,7.2,'11111222,11111222,11111222' 
LUMCON,ioos:station:LUMCON:103:1,2005-05-05T14:00:00Z,30.1889,-90.1683,1.0,5.7,0.0,7.2,'11111222,11111222,11111222' 
LUMCON,ioos:station:LUMCON:103:1,2005-05-05T15:00:00Z,30.1889,-90.1683,1.0,6.2,10.0,8.2,'11111222,11111222,11111222' 
LUMCON,ioos:station:LUMCON:103:1,2005-05-05T16:00:00Z,30.1889,-90.1683,1.0,6.7,360.0,8.8,'11111222,11144222,11111222' 
LUMCON,ioos:station:LUMCON:103:1,2005-05-05T17:00:00Z,30.1889,-90.1683,1.0,6.2,350.0,9.3,'11111222,11111222,11111222' 
LUMCON,ioos:station:LUMCON:103:1,2005-05-05T21:00:00Z,30.1889,-90.1683,1.0,4.6,10.0,6.7,'11111222,11111222,11111222' 
LUMCON,ioos:station:LUMCON:103:1,2005-05-05T22:00:00Z,30.1889,-90.1683,1.0,5.7,360.0,7.2,'11111222,11144222,11111222' 
LUMCON,ioos:station:LUMCON:103:1,2005-05-05T23:00:00Z,30.1889,-90.1683,1.0,6.7,360.0,7.7,'11111222,11144222,11111222' 
LUMCON,ioos:station:LUMCON:103:1,2005-05-06T00:00:00Z,30.1889,-90.1683,1.0,4.6,0.0,5.7,'11111222,11111222,11111222' 
LUMCON,ioos:station:LUMCON:103:1,2005-05-06T01:00:00Z,30.1889,-90.1683,1.0,3.1,350.0,3.6,'11111222,11111222,11111222' 
LUMCON,ioos:station:LUMCON:103:1,2005-05-06T02:00:00Z,30.1889,-90.1683,1.0,3.1,330.0,3.6,'11111222,11111222,11111222' 
LUMCON,ioos:station:LUMCON:103:1,2005-05-06T03:00:00Z,30.1889,-90.1683,1.0,4.1,340.0,4.6,'11111222,11111222,11111222' 
LUMCON,ioos:station:LUMCON:103:1,2005-05-06T04:00:00Z,30.1889,-90.1683,1.0,4.1,340.0,4.6,'11111222,11111222,11111222' 
LUMCON,ioos:station:LUMCON:103:1,2005-05-06T05:00:00Z,30.1889,-90.1683,1.0,4.1,340.0,4.6,'11111222,11111222,11111222' 
LUMCON,ioos:station:LUMCON:103:1,2005-05-06T06:00:00Z,30.1889,-90.1683,1.0,4.6,350.0,5.7,'11111222,11111222,11111222' 
LUMCON,ioos:station:LUMCON:103:1,2005-05-06T07:00:00Z,30.1889,-90.1683,1.0,4.6,350.0,5.7,'11111222,11111222,11111222' 
LUMCON,ioos:station:LUMCON:103:1,2005-05-06T08:00:00Z,30.1889,-90.1683,1.0,4.1,350.0,5.1,'11111222,11111222,11111222' 
LUMCON,ioos:station:LUMCON:103:1,2005-05-06T09:00:00Z,30.1889,-90.1683,1.0,3.6,350.0,4.6,'11111222,11111222,11111222' 
LUMCON,ioos:station:LUMCON:103:1,2005-05-06T10:00:00Z,30.1889,-90.1683,1.0,3.6,0.0,4.6,'11111222,11111222,11111222' 
LUMCON,ioos:station:LUMCON:103:1,2005-05-06T11:00:00Z,30.1889,-90.1683,1.0,5.1,10.0,6.2,'11111222,11111222,11111222' 
LUMCON,ioos:station:LUMCON:103:1,2005-05-06T12:00:00Z,30.1889,-90.1683,1.0,4.1,20.0,5.7,'11111222,11111222,11111222' 
LUMCON,ioos:station:LUMCON:103:1,2005-05-06T13:00:00Z,30.1889,-90.1683,1.0,4.1,40.0,5.1,'11111222,11111222,11111222' 
LUMCON,ioos:station:LUMCON:103:1,2005-05-06T14:00:00Z,30.1889,-90.1683,1.0,3.1,30.0,4.1,'11111222,11111222,11111222' 
LUMCON,ioos:station:LUMCON:103:1,2005-05-06T15:00:00Z,30.1889,-90.1683,1.0,3.1,40.0,3.6,'11111222,11111222,11111222' 
LUMCON,ioos:station:LUMCON:103:1,2005-05-06T16:00:00Z,30.1889,-90.1683,1.0,2.6,70.0,3.1,'11111222,11111222,11111222' 
LUMCON,ioos:station:LUMCON:103:1,2005-05-06T17:00:00Z,30.1889,-90.1683,1.0,3.6,130.0,4.1,'11111222,11111222,11111222' 
LUMCON,ioos:station:LUMCON:103:1,2005-05-06T18:00:00Z,30.1889,-90.1683,1.0,4.6,140.0,5.1,'11111222,11111222,11111222' 
LUMCON,ioos:station:LUMCON:103:1,2005-05-06T19:00:00Z,30.1889,-90.1683,1.0,5.1,170.0,5.7,'11111222,11111222,11111222' 
LUMCON,ioos:station:LUMCON:103:1,2005-05-06T20:00:00Z,30.1889,-90.1683,1.0,4.6,180.0,5.1,'11111222,11111222,11111222' 
LUMCON,ioos:station:LUMCON:103:1,2005-05-06T21:00:00Z,30.1889,-90.1683,1.0,4.6,190.0,5.1,'11111222,11111222,11111222' 
LUMCON,ioos:station:LUMCON:103:1,2005-05-06T22:00:00Z,30.1889,-90.1683,1.0,4.1,190.0,4.6,'11111222,11111222,11111222' 
LUMCON,ioos:station:LUMCON:103:1,2005-05-06T23:00:00Z,30.1889,-90.1683,1.0,3.6,160.0,4.1,'11111222,11111222,11111222' 
LUMCON,ioos:station:LUMCON:103:1,2005-05-07T00:00:00Z,30.1889,-90.1683,1.0,4.1,130.0,4.6,'11111222,11111222,11111222' 
LUMCON,ioos:station:LUMCON:103:1,2005-05-07T01:00:00Z,30.1889,-90.1683,1.0,4.6,120.0,5.7,'11111222,11111222,11111222' 
LUMCON,ioos:station:LUMCON:103:1,2005-05-07T02:00:00Z,30.1889,-90.1683,1.0,5.7,150.0,6.2,'11111222,11111222,11111222' 
LUMCON,ioos:station:LUMCON:103:1,2005-05-07T03:00:00Z,30.1889,-90.1683,1.0,5.7,140.0,6.7,'11111222,11111222,11111222' 
LUMCON,ioos:station:LUMCON:103:1,2005-05-07T04:00:00Z,30.1889,-90.1683,1.0,5.7,150.0,6.2,'11111222,11111222,11111222' 
LUMCON,ioos:station:LUMCON:103:1,2005-05-07T05:00:00Z,30.1889,-90.1683,1.0,4.6,170.0,5.1,'11111222,11111222,11111222' 
LUMCON,ioos:station:LUMCON:103:1,2005-05-07T06:00:00Z,30.1889,-90.1683,1.0,3.6,180.0,4.1,'11111222,11111222,11111222' 
LUMCON,ioos:station:LUMCON:103:1,2005-05-07T07:00:00Z,30.1889,-90.1683,1.0,3.1,160.0,4.1,'11111222,11111222,11111222' 
LUMCON,ioos:station:LUMCON:103:1,2005-05-07T08:00:00Z,30.1889,-90.1683,1.0,3.1,170.0,4.1,'11111222,11111222,11111222' 
LUMCON,ioos:station:LUMCON:103:1,2005-05-07T09:00:00Z,30.1889,-90.1683,1.0,2.6,160.0,3.1,'11111222,11111222,11111222' 
LUMCON,ioos:station:LUMCON:103:1,2005-05-07T10:00:00Z,30.1889,-90.1683,1.0,3.1,150.0,4.1,'11111222,11111222,11111222' 
LUMCON,ioos:station:LUMCON:103:1,2005-05-07T11:00:00Z,30.1889,-90.1683,1.0,3.1,130.0,3.6,'11111222,11111222,11111222' 
LUMCON,ioos:station:LUMCON:103:1,2005-05-07T12:00:00Z,30.1889,-90.1683,1.0,3.1,110.0,4.1,'11111222,11111222,11111222' 
LUMCON,ioos:station:LUMCON:103:1,2005-05-07T13:00:00Z,30.1889,-90.1683,1.0,3.1,50.0,3.6,'11111222,11111222,11111222' 
LUMCON,ioos:station:LUMCON:103:1,2005-05-07T14:00:00Z,30.1889,-90.1683,1.0,2.6,80.0,3.1,'11111222,11111222,11111222' 
LUMCON,ioos:station:LUMCON:103:1,2005-05-07T15:00:00Z,30.1889,-90.1683,1.0,3.6,90.0,4.1,'11111222,11111222,11111222' 
LUMCON,ioos:station:LUMCON:103:1,2005-05-07T16:00:00Z,30.1889,-90.1683,1.0,4.1,90.0,4.6,'11111222,11111222,11111222' 
LUMCON,ioos:station:LUMCON:103:1,2005-05-07T17:00:00Z,30.1889,-90.1683,1.0,5.1,100.0,5.7,'11111222,11111222,11111222' 
LUMCON,ioos:station:LUMCON:103:1,2005-05-07T18:00:00Z,30.1889,-90.1683,1.0,4.6,100.0,5.1,'11111222,11111222,11111222' 
LUMCON,ioos:station:LUMCON:103:1,2005-05-07T19:00:00Z,30.1889,-90.1683,1.0,5.1,100.0,6.2,'11111222,11111222,11111222' 
LUMCON,ioos:station:LUMCON:103:1,2005-05-07T20:00:00Z,30.1889,-90.1683,1.0,5.7,100.0,6.2,'11111222,11111222,11111222' 
LUMCON,ioos:station:LUMCON:103:1,2005-05-07T21:00:00Z,30.1889,-90.1683,1.0,6.2,100.0,6.7,'11111222,11111222,11111222' 
LUMCON,ioos:station:LUMCON:103:1,2005-05-07T22:00:00Z,30.1889,-90.1683,1.0,6.2,100.0,7.2,'11111222,11111222,11111222' 
LUMCON,ioos:station:LUMCON:103:1,2005-05-07T23:00:00Z,30.1889,-90.1683,1.0,6.2,110.0,7.7,'11111222,11111222,11111222' 
LUMCON,ioos:station:LUMCON:103:1,2005-05-08T00:00:00Z,30.1889,-90.1683,1.0,6.7,110.0,7.7,'11111222,11111222,11111222' 
LUMCON,ioos:station:LUMCON:103:1,2005-05-08T01:00:00Z,30.1889,-90.1683,1.0,7.2,120.0,8.2,'11111222,11111222,11111222' 
LUMCON,ioos:station:LUMCON:103:1,2005-05-08T02:00:00Z,30.1889,-90.1683,1.0,6.7,130.0,7.7,'11111222,11111222,11111222' 
LUMCON,ioos:station:LUMCON:103:1,2005-05-08T03:00:00Z,30.1889,-90.1683,1.0,7.2,140.0,8.2,'11111222,11111222,11111222' 
LUMCON,ioos:station:LUMCON:103:1,2005-05-08T04:00:00Z,30.1889,-90.1683,1.0,6.2,130.0,7.2,'11111222,11111222,11111222' 
LUMCON,ioos:station:LUMCON:103:1,2005-05-08T05:00:00Z,30.1889,-90.1683,1.0,6.2,140.0,7.2,'11111222,11111222,11111222' 
LUMCON,ioos:station:LUMCON:103:1,2005-05-08T06:00:00Z,30.1889,-90.1683,1.0,5.7,140.0,6.2,'11111222,11111222,11111222' 
LUMCON,ioos:station:LUMCON:103:1,2005-05-08T07:00:00Z,30.1889,-90.1683,1.0,5.7,140.0,6.2,'11111222,11111222,11111222' 
LUMCON,ioos:station:LUMCON:103:1,2005-05-08T08:00:00Z,30.1889,-90.1683,1.0,4.6,140.0,5.7,'11111222,11111222,11111222' 
LUMCON,ioos:station:LUMCON:103:1,2005-05-08T09:00:00Z,30.1889,-90.1683,1.0,4.1,140.0,4.6,'11111222,11111222,11111222' 
LUMCON,ioos:station:LUMCON:103:1,2005-05-08T10:00:00Z,30.1889,-90.1683,1.0,3.6,110.0,4.6,'11111222,11111222,11111222' 
LUMCON,ioos:station:LUMCON:103:1,2005-05-08T11:00:00Z,30.1889,-90.1683,1.0,3.6,110.0,4.1,'11111222,11111222,11111222' 
LUMCON,ioos:station:LUMCON:103:1,2005-05-08T12:00:00Z,30.1889,-90.1683,1.0,3.6,80.0,4.1,'11111222,11111222,11111222' 
LUMCON,ioos:station:LUMCON:103:1,2005-05-08T13:00:00Z,30.1889,-90.1683,1.0,3.6,80.0,4.6,'11111222,11111222,11111222' 
LUMCON,ioos:station:LUMCON:103:1,2005-05-08T14:00:00Z,30.1889,-90.1683,1.0,4.6,80.0,5.1,'11111222,11111222,11111222' 
LUMCON,ioos:station:LUMCON:103:1,2005-05-08T15:00:00Z,30.1889,-90.1683,1.0,5.7,100.0,6.7,'11111222,11111222,11111222' 
LUMCON,ioos:station:LUMCON:103:1,2005-05-08T16:00:00Z,30.1889,-90.1683,1.0,5.7,100.0,6.7,'11111222,11111222,11111222' 
LUMCON,ioos:station:LUMCON:103:1,2005-05-08T17:00:00Z,30.1889,-90.1683,1.0,6.2,100.0,7.2,'11111222,11111222,11111222' 
LUMCON,ioos:station:LUMCON:103:1,2005-05-08T18:00:00Z,30.1889,-90.1683,1.0,6.7,100.0,7.2,'11111222,11111222,11111222' 
LUMCON,ioos:station:LUMCON:103:1,2005-05-08T19:00:00Z,30.1889,-90.1683,1.0,7.7,90.0,8.8,'11111222,11111222,11111222' 
LUMCON,ioos:station:LUMCON:103:1,2005-05-08T20:00:00Z,30.1889,-90.1683,1.0,7.7,90.0,8.8,'11111222,11111222,11111222' 
LUMCON,ioos:station:LUMCON:103:1,2005-05-08T21:00:00Z,30.1889,-90.1683,1.0,7.7,90.0,8.8,'11111222,11111222,11111222' 
LUMCON,ioos:station:LUMCON:103:1,2005-05-08T22:00:00Z,30.1889,-90.1683,1.0,8.2,90.0,9.3,'11111222,11111222,11111222' 
LUMCON,ioos:station:LUMCON:103:1,2005-05-08T23:00:00Z,30.1889,-90.1683,1.0,8.8,100.0,9.8,'11111222,11111222,11111222' 
LUMCON,ioos:station:LUMCON:103:1,2005-05-09T00:00:00Z,30.1889,-90.1683,1.0,9.3,100.0,10.8,'11111222,11111222,11111222' 
LUMCON,ioos:station:LUMCON:103:1,2005-05-09T01:00:00Z,30.1889,-90.1683,1.0,9.3,110.0,10.3,'11111222,11111222,11111222' 
LUMCON,ioos:station:LUMCON:103:1,2005-05-09T02:00:00Z,30.1889,-90.1683,1.0,8.8,120.0,9.8,'11111222,11111222,11111222' 
LUMCON,ioos:station:LUMCON:103:1,2005-05-09T03:00:00Z,30.1889,-90.1683,1.0,7.2,130.0,8.8,'11111222,11111222,11111222' 
LUMCON,ioos:station:LUMCON:103:1,2005-05-09T04:00:00Z,30.1889,-90.1683,1.0,7.2,140.0,8.2,'11111222,11111222,11111222' 
LUMCON,ioos:station:LUMCON:103:1,2005-05-09T05:00:00Z,30.1889,-90.1683,1.0,6.2,150.0,7.2,'11111222,11111222,11111222' 
LUMCON,ioos:station:LUMCON:103:1,2005-05-09T06:00:00Z,30.1889,-90.1683,1.0,3.6,160.0,4.1,'11111222,11111222,11111222' 
LUMCON,ioos:station:LUMCON:103:1,2005-05-09T07:00:00Z,30.1889,-90.1683,1.0,5.7,130.0,6.2,'11111222,11111222,11111222' 
LUMCON,ioos:station:LUMCON:103:1,2005-05-09T08:00:00Z,30.1889,-90.1683,1.0,8.2,140.0,9.3,'11111222,11111222,11111222' 
LUMCON,ioos:station:LUMCON:103:1,2005-05-09T09:00:00Z,30.1889,-90.1683,1.0,6.7,140.0,7.7,'11111222,11111222,11111222' 
LUMCON,ioos:station:LUMCON:103:1,2005-05-09T10:00:00Z,30.1889,-90.1683,1.0,6.7,160.0,7.2,'11111222,11111222,11111222' 
LUMCON,ioos:station:LUMCON:103:1,2005-05-09T11:00:00Z,30.1889,-90.1683,1.0,6.2,160.0,6.7,'11111222,11111222,11111222' 
LUMCON,ioos:station:LUMCON:103:1,2005-05-09T12:00:00Z,30.1889,-90.1683,1.0,4.1,160.0,5.1,'11111222,11111222,11111222' 
LUMCON,ioos:station:LUMCON:103:1,2005-05-09T13:00:00Z,30.1889,-90.1683,1.0,3.6,160.0,4.1,'11111222,11111222,11111222' 
LUMCON,ioos:station:LUMCON:103:1,2005-05-09T14:00:00Z,30.1889,-90.1683,1.0,4.6,100.0,5.1,'11111222,11111222,11111222' 
LUMCON,ioos:station:LUMCON:103:1,2005-05-09T15:00:00Z,30.1889,-90.1683,1.0,3.1,90.0,3.6,'11111222,11111222,11111222' 
LUMCON,ioos:station:LUMCON:103:1,2005-05-09T16:00:00Z,30.1889,-90.1683,1.0,2.6,80.0,3.1,'11111222,11111222,11111222' 
LUMCON,ioos:station:LUMCON:103:1,2005-05-09T17:00:00Z,30.1889,-90.1683,1.0,3.6,90.0,4.6,'11111222,11111222,11111222' 
LUMCON,ioos:station:LUMCON:103:1,2005-05-09T18:00:00Z,30.1889,-90.1683,1.0,4.1,80.0,4.6,'11111222,11111222,11111222' 
LUMCON,ioos:station:LUMCON:103:1,2005-05-09T19:00:00Z,30.1889,-90.1683,1.0,3.6,100.0,4.1,'11111222,11111222,11111222' 
LUMCON,ioos:station:LUMCON:103:1,2005-05-09T20:00:00Z,30.1889,-90.1683,1.0,3.1,70.0,3.6,'11111222,11111222,11111222' 
LUMCON,ioos:station:LUMCON:103:1,2005-05-09T21:00:00Z,30.1889,-90.1683,1.0,3.1,120.0,3.6,'11111222,11111222,11111222' 
LUMCON,ioos:station:LUMCON:103:1,2005-05-09T22:00:00Z,30.1889,-90.1683,1.0,2.6,110.0,3.6,'11111222,11111222,11111222' 
LUMCON,ioos:station:LUMCON:103:1,2005-05-09T23:00:00Z,30.1889,-90.1683,1.0,3.6,90.0,4.1,'11111222,11111222,11111222' 
LUMCON,ioos:station:LUMCON:103:1,2005-05-10T00:00:00Z,30.1889,-90.1683,1.0,3.6,100.0,4.6,'11111222,11111222,11111222' 
LUMCON,ioos:station:LUMCON:103:1,2005-05-10T01:00:00Z,30.1889,-90.1683,1.0,4.6,100.0,5.1,'11111222,11111222,11111222' 
LUMCON,ioos:station:LUMCON:103:1,2005-05-10T02:00:00Z,30.1889,-90.1683,1.0,4.6,120.0,5.7,'11111222,11111222,11111222' 